Regional Weather Roundup
Issued by NWS

Home | Current Version | Previous Version | Graphics & Text | Print | Product List | Glossary On
Versions: 1 2 3 4 5 6 7 8 9 10 11 12 13 14 15 16 17 18 19 20 21 22 23 24 25 26 27 28 29 30 31 32 33 34 35 36 37 38 39 40 41 42 43 44 45 46 47 48 49 50
000
ASUS43 KMPX 281101
RWRMN
WEATHER ROUNDUP FOR MINNESOTA
NATIONAL WEATHER SERVICE TWIN CITIES/CHANHASSEN MN
500 AM CST WED JAN 28 2015


NOTE: "FAIR" INDICATES FEW OR NO CLOUDS BELOW 12,000 FEET WITH NO
SIGNIFICANT WEATHER AND/OR OBSTRUCTIONS TO VISIBILITY. N/A MEANS
CURRENT SKY AND/OR WEATHER CONDITIONS ARE NOT AVAILABLE.

MNZ060>063-068>070-281200-
   Twin Cities Metro

CITY           SKY/WX    TMP DP  RH WIND       PRES   REMARKS
TWIN CITIES    CLOUDY    29  25  85 SE14      30.04F WCI  18
ST PAUL        CLOUDY    29  25  85 MISG      30.06F
CRYSTAL        CLOUDY    31  26  82 SE15      30.01F WCI  20
BLAINE         CLOUDY    30  28  93 SE14      30.02F WCI  20
LAKEVILLE      CLOUDY    28  27  93 SE12      30.03F WCI  18
EDEN PRAIRIE   CLOUDY    30  26  85 SE14      30.01F WCI  19
SOUTH ST PAUL  CLOUDY    30  26  84 SE8       30.05F WCI  22
LAKE ELMO      CLOUDY    30  27  86 SE13      30.06F WCI  20
$$
MNZ001>005-007-008-013>017-022>024-027-028-281200-
   Northwest Minnesota

CITY           SKY/WX    TMP DP  RH WIND       PRES   REMARKS
BEMIDJI        CLOUDY    30  28  93 SE8       29.87F WCI  22
HALLOCK        CLOUDY   N/A N/A N/A SE9       29.82F FOG
ROSEAU         CLOUDY    30  27  86 SE7       29.87S HAZE    WCI  23
WARROAD        CLOUDY    30  27  86 SE7       29.88F FOG     WCI  23
THIEF RVR FALL CLOUDY    32  30  93 SE7       29.84F WCI  26
CROOKSTON      CLOUDY    34  32  93 S15       29.84S WCI  24
FOSSTON        CLOUDY    30  28  93 SE10      29.84S WCI  21
DETROIT LAKES  CLOUDY    32  32 100 S13       29.85F WCI  22
MOORHEAD       CLOUDY    34  34 100 CALM      29.84F
PARK RAPIDS    CLOUDY    31  29  92 SE15      29.88S WCI  20
MAHNOMEN       PTSUNNY   32  30  93 S9        29.84R WCI  24
$$
MNZ006-009>011-018-025>026-281200-
   North Central Minnesota

CITY           SKY/WX    TMP DP  RH WIND       PRES   REMARKS
BAUDETTE       CLOUDY    28  24  85 SE6       29.89F WCI  22
FLAG ISLAND    CLOUDY    28  25  86 SE7       29.89F WCI  21
INTL FALLS     CLOUDY    26  23  88 SE6       29.94F WCI  19
WASKISH        CLOUDY    30  27  86 SE9       29.89F WCI  22
BIG FORK       CLOUDY    28  25  86 S5        29.94F WCI  23
LONGVILLE      CLOUDY    28  27  93 SE8       29.92S FOG     WCI  20
GRAND RAPIDS   CLOUDY    27  25  93 SE10      29.94F WCI  17
CRANE LAKE     CLOUDY    25  23  93 S6        29.99F WCI  18
ORR            CLOUDY    25  21  86 S3        29.94F
COOK           CLOUDY    25  23  93 S7        29.97S WCI  17
WALKER         CLOUDY    29  28  93 SE3       29.90F
$$
MNZ012-019>021-037-281200-
   Northeast Minnesota

CITY           SKY/WX    TMP DP  RH WIND       PRES   REMARKS
DULUTH         CLOUDY    23  20  88 S8        30.01F WCI  14
ELY            CLOUDY    25  21  86 SE7       29.98F WCI  17
HIBBING        CLOUDY    26  22  84 S9        29.98S WCI  17
EVELETH        CLOUDY    27  23  86 S8        30.00S WCI  18
DULUTH HARBOR  CLOUDY    27  21  80 S7        30.08S WCI  19
TWO HARBORS    CLOUDY    28  21  74 S3        30.03F
SILVER BAY     MOCLDY    28  23  80 SE5       30.03F WCI  23
GRAND MARAIS     N/A     31  26  82 SW10      30.09F WCI  22
G MARAIS ARPRT   N/A     25  21  86 S6        30.03S FOG     WCI  18
$$
MNZ029>031-032-039>041-046>048-054>057-064-281200-
   West Central Minnesota

CITY           SKY/WX    TMP DP  RH WIND       PRES   REMARKS
FERGUS FALLS   CLOUDY    32  30  93 S20G25    29.87F WCI  20
WHEATON        CLOUDY    28  28 100 SE16G23   29.84F WCI  17
MORRIS         CLOUDY    34  30  86 SE20      29.85F FOG     WCI  22
ALEXANDRIA     CLOUDY    32  29  88 SE20      29.88F WCI  20
ELBOW LAKE     CLOUDY    32  31  95 SE21G26   29.84F WCI  20
WADENA         CLOUDY    30  28  93 SE13        N/A  FOG     WCI  20
GLENWOOD       CLOUDY    30  30 100 SE15G23   29.89F FOG     WCI  19
APPLETON       MOCLDY    34  30  86 SE14G20   29.86F WCI  24
BENSON         CLOUDY    32  30  93 S17G23    29.88F WCI  21
ORTONVILLE     MOCLDY    30  28  93 SE15G22   29.83F FOG     WCI  19
MADISON        MOCLDY    36  34  93 SE15      29.85F
WILLMAR        CLOUDY    34  30  86 SE16G23   29.92F FOG     WCI  23
$$
MNZ033>034-036-042>043-049>051-058-059-281200-
   Central Minnesota

CITY           SKY/WX    TMP DP  RH WIND       PRES   REMARKS
ST CLOUD       CLOUDY    30  28  92 SE15      29.97F WCI  19
SAUK CENTRE    CLOUDY    31  30  96 SE16      29.92S FOG     WCI  20
PAYNESVILLE    CLOUDY    29  29  99 E13G21    29.94S FOG     WCI  19
AITKIN         CLOUDY    30  25  80 SE12      29.94F HAZE    WCI  21
PINE RIVER     CLOUDY    28  28 100 S12       29.95F FOG     WCI  18
BRAINERD       CLOUDY    30  27  88 S13G21    29.94F FOG     WCI  20
STAPLES        CLOUDY    28  28 100 SE10G17   29.90F FOG     WCI  19
LONG PRAIRIE   CLOUDY    30  30 100 SE16      29.92S FOG     WCI  19
LITTLE FALLS   CLOUDY    32  28  86 SE9       29.95S WCI  24
LITCHFIELD     CLOUDY    32  32 100 SE8G17    29.95F WCI  25
BUFFALO        CLOUDY    30  28  90 SE8       30.00F WCI  23
MAPLE LAKE     CLOUDY    32  30  94 SE10G17   29.99F WCI  23
$$
MNZ037-044-045-052-053-281200-
   East Central Minnesota

CITY           SKY/WX    TMP DP  RH WIND       PRES   REMARKS
PRINCETON      CLOUDY    30  28  93 SE10      29.99F FOG     WCI  21
MORA           CLOUDY    28  25  86 SE7       30.02F WCI  21
CAMBRIDGE      CLOUDY    30  23  74 SE9       29.99F WCI  22
RUSH CITY      CLOUDY    28  25  89 SE10      30.02F WCI  18
MOOSE LAKE     CLOUDY    27  23  86 SE6       30.00F WCI  20
HINCKLEY       CLOUDY    28  27  93 SE7       30.02F WCI  21
CLOQUET        CLOUDY    25  21  86 SE7       30.01S WCI  17
MCGREGOR       CLOUDY    28  27  93 SE13      29.97F WCI  18
$$
MNZ071>073-080-081-089-090-097-098-281200-
   Southwest Minnesota

CITY           SKY/WX    TMP DP  RH WIND       PRES   REMARKS
MONTEVIDEO     MOCLDY    32  32 100 S16       29.88F WCI  21
GRANITE FALLS  PTCLDY    32  30  93 SE15G24   29.90F WCI  21
CANBY          MOCLDY    32  31  96 SE9       29.85S WCI  24
MARSHALL       PTCLDY    30  27  86 S16       29.87F WCI  19
REDWOOD FALLS  CLOUDY    33  30  88 SE23      29.92F WCI  21
OLIVIA         CLOUDY    32  30  93 SE20      29.91F FOG     WCI  20
PIPESTONE      PTCLDY    34  30  86 S16G28    29.83F WCI  23
WINDOM         CLOUDY    30  30 100 SE16G26   29.91F FOG     WCI  19
WORTHINGTON    CLOUDY    30  27  86 S15G21    29.90S WCI  19
JACKSON        CLOUDY    32  30  93 SE15      29.93F FOG     WCI  22
TRACY          PTCLDY    32  31  95 S17G23    29.87F WCI  21
SLAYTON        PTCLDY    31  30  95 SE18      29.87F FOG     WCI  19
$$
MNZ065>067-074>077-082>085-091>093-281200-
   South Central Minnesota

CITY           SKY/WX    TMP DP  RH WIND       PRES   REMARKS
MANKATO        CLOUDY    30  27  86 S16G23    29.99F WCI  19
NEW ULM        CLOUDY    30  30 100 S20       29.96F FOG     WCI  18
ST JAMES       CLOUDY    34  30  86 SE18G25   29.97F FOG     WCI  23
FAIRMONT       CLOUDY    30  27  86 S21       29.97F WCI  17
GLENCOE        CLOUDY    32  31  96 SE13G18   29.98F WCI  22
FARIBAULT      CLOUDY    28  27  93 SE15G21   30.03F FOG     WCI  17
OWATONNA       CLOUDY    28  27  93 SE17      30.02F FOG     WCI  16
WASECA         CLOUDY    30  28  93 SE12G21   30.03F FOG     WCI  21
ALBERT LEA     CLOUDY    28  28 100 SE16      30.02F FOG     WCI  17
$$
MNZ078>079-086>088-094>096-281200-
   Southeast Minnesota

CITY           SKY/WX    TMP DP  RH WIND       PRES   REMARKS
ROCHESTER      CLOUDY    25  23  92 SE18      30.06F FOG     WCI  11
RED WING       CLOUDY    28  25  86 SE13      30.08F WCI  18
STANTON        CLOUDY    30  27  86 S9G18     30.03F WCI  22
DODGE CENTER   CLOUDY    27  27 100 SE18      30.03F FOG     WCI  13
WINONA         CLOUDY    28  23  80 S5        30.14F WCI  23
AUSTIN         CLOUDY    27  25  93 SE10G17   30.04F FOG     WCI  17
PRESTON        CLOUDY    24  22  93 SE13G21   30.08F FOG     WCI  12
$$
ABBREVIATIONS USED IN REMARKS
   TC - TEMPERATURES IN CELSIUS
  WCI - WIND CHILL INDEX
   HX - HEAT INDEX
  VSB - VISIBILITY
$$



USA.gov is the U.S. government's official web portal to all federal, state and local government web resources and services.